[[{"header":{"parameterUnit":"m.s-1","parameterCategory":1,"la1":30.2991,"la2":30.254,"lo1":-89.0895,"lo2":-89.0444,"dy":0.0017,"dx":0.0017,"nx":28,"ny":28,"refTime":"2024-05-14T03:00:00:Z","depth":0,"parameterNumber":2,"parameterNumberName":"U-component_of_WINDS"},"data":[0,0,0,0,0,0,0,0,0,0,0,0,0,0,0,0,0,0,0,0,0,0,0,0,0,0,0,0,0,0,0,0,0,0,0,0,0,0,0,0,0,0,0,0,0,0,0,0,0,0,0,0,0,0,0,0,0,0,3.0108,3.0109,0,3.0168,3.0168,3.0169,3.016,3.0159,3.0158,3.0157,3.0222,3.0225,3.0228,0,0,0,0,0,0,0,0,0,0,0,0,0,2.9994,2.9996,3.0108,3.0109,3.011,3.0168,3.0168,3.0169,3.016,3.0159,3.0158,3.0157,3.0221,3.0225,3.0228,0,0,0,0,0,0,0,0,0,0,0,0,0,3.0048,2.9997,3.0108,3.0112,3.0113,3.0167,3.0168,3.017,3.0161,3.0159,3.0157,3.0156,3.022,3.0224,3.0228,3.0284,0,0,3.0241,3.0242,0,0,0,0,0,0,0,0,3.0044,3.0052,3.0111,3.0112,3.0113,3.0155,3.0152,3.0208,3.0161,3.0143,3.0157,3.0155,3.0201,3.0207,3.0222,3.0287,3.029,3.0241,3.0243,3.0245,3.0246,0,0,0,0,0,0,0,3.0041,3.0049,3.0132,3.0112,3.0113,3.0113,3.0119,3.0163,3.018,3.0144,3.0144,3.0151,3.0202,3.0218,3.0223,3.0291,3.0241,3.0245,3.0247,3.0249,3.0411,3.0412,0,0,0,0,0,0,3.0035,3.0046,3.013,3.0134,3.0074,3.0117,3.0123,3.0143,3.0179,3.0183,3.0152,3.015,3.0212,3.0218,3.0225,3.0297,3.0245,3.0249,3.0251,3.0409,3.0411,3.0413,0,0,0,0,0,0,3.0033,3.0043,3.0128,3.009,3.0101,3.012,3.0143,3.0145,3.0161,3.0185,3.0189,3.0164,3.0211,3.022,3.027,3.0299,3.0251,3.0254,3.0407,3.0409,3.0412,3.0437,0,0,0,0,0,0,3.0029,3.0042,3.0061,3.009,3.0103,3.017,3.0144,3.0147,3.0167,3.0165,3.0198,3.0202,3.021,3.0264,3.0274,3.0303,3.0258,3.0404,3.0408,3.0411,3.0434,3.0441,3.0446,0,0,0,0,0,3.0025,3.0066,3.0062,3.0072,3.0127,3.0171,3.0178,3.0186,3.0169,3.0191,3.0207,3.0201,3.0293,3.027,3.0281,3.0311,3.0402,3.0407,3.0411,3.0431,3.0439,3.0446,0,0,0,0,0,0,3.004,3.0069,3.0066,3.0116,3.0141,3.0169,3.0196,3.0193,3.0224,3.0221,3.023,3.0238,3.029,3.0305,3.0278,3.037,3.0346,3.0353,3.0358,3.0366,3.0372,3.0368,3.0261,0,0,0,0,0,3.0049,3.008,3.0105,3.0148,3.016,3.0176,3.0195,3.0199,3.0226,3.0237,3.0256,3.0284,3.032,3.0343,3.0377,3.0436,3.0446,3.0463,3.0469,3.0474,3.048,3.0517,3.0527,3.0427,3.0427,3.0427,0,0,3.0068,3.0088,3.0107,3.0151,3.0171,3.0206,3.0185,3.0222,3.0249,3.0243,3.0292,3.0308,3.034,3.0396,3.0422,3.0411,3.051,3.0479,3.0483,3.0487,3.0523,3.0532,3.0541,3.043,3.0429,3.0429,0,0,3.0122,3.0138,3.0177,3.0198,3.0228,3.0239,3.0249,3.0278,3.0288,3.0338,3.0335,3.0369,3.0429,3.0453,3.0474,3.0541,3.0538,3.0551,3.0584,3.062,3.0628,3.0635,3.0663,3.0673,3.0557,3.0557,3.0557,0,3.0142,3.0193,3.0198,3.0237,3.0258,3.0253,3.0296,3.0316,3.0356,3.0372,3.0358,3.0437,3.0458,3.0522,3.0539,3.0554,3.0568,3.0548,3.0626,3.0633,3.064,3.0667,3.0677,3.0559,3.0559,3.0559,3.0559,0,3.0219,3.0254,3.0283,3.0322,3.0346,3.0386,3.0401,3.0425,3.0427,3.0441,3.0495,3.052,3.0561,3.0576,3.0578,3.0642,3.0635,3.0623,3.06,3.0651,3.0677,3.0687,3.0562,3.0561,3.056,3.056,0,0,3.0282,3.0326,3.0336,3.0356,3.039,3.042,3.0461,3.0501,3.0524,3.0552,3.059,3.0643,3.0634,3.0657,3.0663,3.0694,3.0751,3.068,3.0681,3.0695,3.0828,3.0839,3.085,3.0749,3.0751,3.0752,3.0827,0,3.0341,3.0413,3.0421,3.0487,3.0523,3.0521,3.0558,3.0585,3.0599,3.0634,3.065,3.0689,3.0672,3.0687,3.0718,3.0737,3.0779,3.0732,3.0788,3.079,3.0782,3.0863,3.0872,3.0942,3.0836,3.0838,3.0839,0,3.042,3.0451,3.0521,3.0554,3.0569,3.0602,3.0642,3.0673,3.0706,3.0714,3.0742,3.0744,3.0792,3.0765,3.0833,3.0801,3.0825,3.0838,3.0841,3.0849,3.0819,3.0876,3.0963,3.0975,3.0854,3.0853,3.0852,0,3.0464,3.0523,3.0574,3.059,3.0629,3.0653,3.0671,3.0702,3.0727,3.0762,3.0779,3.0819,3.0842,3.0874,3.0889,3.0868,3.0958,3.0931,3.097,3.097,3.099,3.0989,3.1086,3.1,3.1,3.1,3.1,0,3.0531,3.0574,3.0595,3.0626,3.0676,3.0686,3.0736,3.0753,3.0781,3.0818,3.0819,3.0854,3.087,3.0909,3.0921,3.0978,3.0987,3.0999,3.1002,3.1,3.0999,3.1017,3.1014,3.1003,3.1002,3.1001,3.1001,0,3.0589,3.0603,3.0659,3.0692,3.0702,3.0738,3.0768,3.08,3.0815,3.0862,3.0874,3.0898,3.0945,3.0962,3.1018,3.1027,3.1094,3.1092,3.1083,3.1084,3.1123,3.1121,3.1237,3.1255,3.1155,3.1156,3.1156,0,3.0632,3.0665,3.0703,3.0727,3.0746,3.0785,3.0811,3.0823,3.0851,3.0892,3.0921,3.0966,3.1004,3.1079,3.1103,3.1148,3.1149,3.1187,3.1155,3.1154,3.1154,3.1153,3.1159,3.1193,3.1194,3.1195,3.1196,0,3.0708,3.0715,3.075,3.0791,3.0821,3.0853,3.0885,3.0906,3.0924,3.0955,3.1002,3.1031,3.109,3.1137,3.1183,3.1205,3.1206,3.1205,3.1217,3.1217,3.1212,3.1219,3.1102,3.1203,3.1202,3.1202,3.1201,3.1201,3.0762,3.0794,3.0826,3.0868,3.0893,3.0923,3.0956,3.0976,3.1015,3.1063,3.1068,3.112,3.1156,3.1219,3.1243,3.1286,3.1276,3.1292,3.1297,3.1301,3.1306,3.1203,3.1294,3.1293,3.1293,3.1293,3.1293,0,3.0842,3.0863,3.0901,3.0946,3.098,3.0975,3.1011,3.104,3.1085,3.1118,3.1155,3.1212,3.1259,3.1288,3.1336,3.1365,3.1367,3.1378,3.1378,3.1384,3.131,3.1296,3.1376,3.1376,3.1376,3.1376,3.1376,3.1376,3.0887,3.0941,3.0952,3.1021,3.1042,3.1092,3.1114,3.1144,3.117,3.1233,3.1272,3.129,3.1323,3.1374,3.1418,3.1426,3.1446,3.1458,3.1465,3.1397,3.1388,3.138,3.1368,3.1461,3.1461,3.1536,3.1537,3.1537]},{"header":{"parameterUnit":"m.s-1","parameterCategory":1,"la1":30.2991,"la2":30.254,"lo1":-89.0895,"lo2":-89.0444,"dy":0.0017,"dx":0.0017,"nx":28,"ny":28,"refTime":"2024-05-14T03:00:00:Z","depth":0,"parameterNumber":3,"parameterNumberName":"V-component_of_WINDS"},"data":[0,0,0,0,0,0,0,0,0,0,0,0,0,0,0,0,0,0,0,0,0,0,0,0,0,0,0,0,0,0,0,0,0,0,0,0,0,0,0,0,0,0,0,0,0,0,0,0,0,0,0,0,0,0,0,0,0,0,0.1642,0.1646,0,0.1979,0.1983,0.1986,0.2017,0.2014,0.201,0.2007,0.2358,0.2371,0.2383,0,0,0,0,0,0,0,0,0,0,0,0,0,0.1031,0.1042,0.1642,0.1646,0.165,0.1978,0.1983,0.1987,0.2018,0.2014,0.2009,0.2005,0.2354,0.2369,0.2384,0,0,0,0,0,0,0,0,0,0,0,0,0,0.1325,0.1045,0.1641,0.1705,0.1714,0.1977,0.1983,0.1989,0.2019,0.2014,0.2008,0.2003,0.2349,0.2368,0.2387,0.2611,0,0,0.2445,0.2453,0,0,0,0,0,0,0,0,0.1308,0.1347,0.1691,0.1701,0.1712,0.195,0.1896,0.2198,0.202,0.1903,0.2007,0.2001,0.2227,0.2256,0.2331,0.2628,0.2643,0.2446,0.2458,0.2466,0.2472,0,0,0,0,0,0,0,0.1288,0.1333,0.1775,0.1696,0.1709,0.1718,0.1754,0.1953,0.2092,0.1913,0.1916,0.1955,0.2232,0.2313,0.234,0.2648,0.2446,0.2463,0.2475,0.2482,0.3144,0.315,0,0,0,0,0,0,0.1254,0.1316,0.1765,0.1786,0.1492,0.1734,0.1774,0.1879,0.2089,0.2116,0.1959,0.1955,0.2283,0.2318,0.2352,0.2629,0.2466,0.2484,0.2495,0.3138,0.3145,0.3152,0,0,0,0,0,0,0.1241,0.1294,0.1751,0.1552,0.161,0.175,0.1868,0.1889,0.197,0.2124,0.215,0.2016,0.228,0.2326,0.2546,0.2641,0.2492,0.251,0.3131,0.314,0.3149,0.3183,0,0,0,0,0,0,0.1223,0.1289,0.1375,0.1553,0.1621,0.1938,0.1874,0.1899,0.2002,0.2,0.2185,0.221,0.2279,0.2517,0.2565,0.2665,0.2525,0.3123,0.3135,0.3146,0.3174,0.3192,0.3208,0,0,0,0,0,0.1201,0.1374,0.1379,0.1433,0.1731,0.1943,0.1982,0.2057,0.2009,0.2097,0.2196,0.2204,0.2622,0.2539,0.2593,0.27,0.3117,0.3131,0.3145,0.3166,0.3189,0.3207,0,0,0,0,0,0,0.1207,0.1398,0.1407,0.1641,0.1775,0.1948,0.2062,0.2078,0.2231,0.2223,0.231,0.2352,0.2569,0.2657,0.2561,0.2928,0.2865,0.289,0.2863,0.2885,0.2902,0.2877,0.254,0,0,0,0,0,0.1234,0.1389,0.1549,0.174,0.1806,0.1922,0.2018,0.2063,0.2206,0.2264,0.2379,0.252,0.2683,0.2789,0.2947,0.3186,0.3227,0.3286,0.3303,0.3316,0.3337,0.3469,0.3497,0.3198,0.3197,0.3197,0,0,0.1295,0.1418,0.1511,0.1744,0.1853,0.2013,0.197,0.2142,0.2261,0.2291,0.2505,0.2594,0.2757,0.2987,0.3094,0.3067,0.3428,0.3333,0.3343,0.3358,0.3486,0.3514,0.3539,0.3207,0.3205,0.3204,0,0,0.1486,0.1595,0.1766,0.1875,0.2039,0.2115,0.2155,0.2325,0.2385,0.26,0.2626,0.2769,0.3049,0.3163,0.3257,0.3488,0.3501,0.3537,0.3626,0.3753,0.3777,0.3798,0.388,0.3908,0.3557,0.3557,0.3558,0,0.1542,0.1781,0.1852,0.2022,0.2123,0.2154,0.2328,0.2431,0.264,0.271,0.2676,0.3024,0.3136,0.3392,0.3448,0.3524,0.3573,0.3517,0.3767,0.3789,0.381,0.389,0.392,0.3561,0.356,0.356,0.356,0,0.184,0.2006,0.2124,0.2321,0.2436,0.2607,0.2705,0.2813,0.2847,0.2925,0.3144,0.3278,0.3464,0.3528,0.3564,0.3789,0.3767,0.3749,0.3688,0.3841,0.3917,0.3948,0.3566,0.3564,0.3563,0.3562,0,0,0.2049,0.2279,0.2322,0.2411,0.2593,0.2723,0.2895,0.3073,0.3164,0.3306,0.3453,0.3686,0.3669,0.3776,0.3825,0.3936,0.4109,0.3905,0.391,0.3939,0.4365,0.4378,0.4412,0.4118,0.4124,0.4129,0.4351,0,0.2261,0.2565,0.2633,0.2896,0.3049,0.3078,0.3228,0.3356,0.3434,0.3576,0.3662,0.3826,0.3792,0.3857,0.3968,0.4065,0.4196,0.4049,0.4256,0.4263,0.4216,0.4451,0.4467,0.467,0.4381,0.4386,0.439,0,0.2551,0.2695,0.2972,0.3131,0.3199,0.3332,0.3499,0.3635,0.378,0.3829,0.3946,0.3982,0.4163,0.409,0.434,0.4238,0.4326,0.4386,0.4396,0.442,0.4337,0.4482,0.4737,0.4768,0.4437,0.4434,0.443,0,0.2674,0.2939,0.3139,0.3214,0.3405,0.3497,0.3581,0.3721,0.3823,0.397,0.4037,0.4204,0.4295,0.4424,0.4504,0.4444,0.4747,0.4682,0.4793,0.4791,0.4858,0.4853,0.5132,0.4913,0.4912,0.4912,0.4911,0,0.2905,0.3074,0.3196,0.3319,0.3509,0.3584,0.377,0.3855,0.3978,0.4119,0.4154,0.4286,0.4383,0.4528,0.4592,0.4789,0.483,0.4875,0.489,0.4873,0.4867,0.4933,0.4921,0.492,0.4918,0.4916,0.4915,0,0.3077,0.3166,0.3385,0.3546,0.359,0.3723,0.3861,0.3982,0.4058,0.4235,0.4281,0.4402,0.4574,0.4665,0.4882,0.4925,0.5145,0.5152,0.5096,0.5102,0.5209,0.5197,0.5541,0.5589,0.5337,0.5339,0.5341,0,0.322,0.3349,0.3522,0.3617,0.3702,0.3856,0.3959,0.4037,0.4144,0.4317,0.4417,0.459,0.4733,0.5007,0.5115,0.528,0.5292,0.54,0.5317,0.5294,0.5294,0.5285,0.5299,0.5415,0.5418,0.542,0.5421,0,0.3463,0.3499,0.3645,0.3806,0.3927,0.4058,0.4188,0.4265,0.4364,0.4482,0.4656,0.4767,0.4985,0.5157,0.5329,0.5417,0.5437,0.5446,0.5481,0.5465,0.5426,0.5449,0.5136,0.5439,0.5437,0.5436,0.5435,0.5434,0.3626,0.3741,0.388,0.4041,0.4146,0.4265,0.4386,0.4475,0.4621,0.4804,0.4841,0.5026,0.5166,0.5399,0.5491,0.5637,0.5616,0.5666,0.5679,0.5691,0.5695,0.5401,0.5669,0.5669,0.5669,0.5668,0.5668,0,0.3871,0.396,0.4107,0.4286,0.4412,0.4415,0.4558,0.4664,0.4825,0.4953,0.5091,0.5291,0.5456,0.5575,0.5744,0.5838,0.5851,0.588,0.5875,0.5894,0.5705,0.5658,0.5866,0.5866,0.5866,0.5866,0.5866,0.5866,0.4013,0.4209,0.4261,0.4509,0.4598,0.4777,0.4858,0.4968,0.507,0.5291,0.5428,0.5503,0.5627,0.5805,0.5957,0.5987,0.6048,0.6076,0.6108,0.5929,0.5908,0.5888,0.5845,0.6089,0.6089,0.6286,0.6288,0.6289]}]]